• In Hungary
  • List of Countries
  • For 7 days
  • Water Temperature
  • Satellite Maps
  • Weather Map
  • News
  • Weather Widgets
  • user-avatar
    Login

    Hourly Weather Cairo

    Today, 25 February, Sunday

    Time Temperature Precipitation Wind Pressure Humidity
    00:00 +19°C° 0 mm 3 mps 754 mmHg 32%
    01:00 +19°C° 0 mm 3 mps 754 mmHg 32%
    02:00 +18°C° 0 mm 3 mps 754 mmHg 31%
    03:00 +18°C° 0 mm 3 mps 754 mmHg 32%
    04:00 +18°C° 0 mm 4 mps 754 mmHg 33%
    05:00 +18°C° 0 mm 4 mps 754 mmHg 33%
    06:00 +18°C° 0 mm 4 mps 755 mmHg 40%
    07:00 +18°C° 0 mm 4 mps 755 mmHg 47%
    08:00 +18°C° 0 mm 4 mps 755 mmHg 54%
    09:00 +19°C° 0 mm 3 mps 755 mmHg 50%
    10:00 +20°C° 0 mm 3 mps 755 mmHg 46%
    11:00 +23°C° 0 mm 2 mps 755 mmHg 43%
    12:00 +24°C° 0 mm 3 mps 755 mmHg 38%
    13:00 +25°C° 0 mm 3 mps 755 mmHg 34%
    14:00 +26°C° 0 mm 4 mps 754 mmHg 30%
    15:00 +25°C° 0 mm 4 mps 754 mmHg 29%
    16:00 +25°C° 0 mm 4 mps 754 mmHg 29%
    17:00 +23°C° 0 mm 4 mps 754 mmHg 29%
    18:00 +22°C° 0 mm 4 mps 754 mmHg 34%
    19:00 +21°C° 0 mm 4 mps 754 mmHg 38%
    20:00 +20°C° 0 mm 3 mps 754 mmHg 43%
    21:00 +19°C° 0 mm 3 mps 754 mmHg 47%
    22:00 +19°C° 0 mm 3 mps 754 mmHg 52%
    23:00 +18°C° 0 mm 3 mps 754 mmHg 57%

    Tomorrow, 26 February, Monday

    Time Temperature Precipitation Wind Pressure Humidity
    00:00 +17°C° 0 mm 3 mps 754 mmHg 60%
    01:00 +17°C° 0 mm 3 mps 754 mmHg 63%
    02:00 +16°C° 0 mm 2 mps 754 mmHg 66%
    03:00 +16°C° 0 mm 2 mps 754 mmHg 67%
    04:00 +16°C° 0 mm 2 mps 754 mmHg 68%
    05:00 +16°C° 0 mm 2 mps 754 mmHg 68%
    06:00 +17°C° 0 mm 2 mps 754 mmHg 65%
    07:00 +17°C° 0 mm 2 mps 754 mmHg 61%
    08:00 +18°C° 0 mm 2 mps 754 mmHg 58%
    09:00 +20°C° 0 mm 3 mps 754 mmHg 48%
    10:00 +22°C° 0 mm 4 mps 754 mmHg 38%
    11:00 +23°C° 0 mm 5 mps 753 mmHg 28%
    12:00 +25°C° 0 mm 5 mps 753 mmHg 27%
    13:00 +26°C° 0 mm 6 mps 752 mmHg 26%
    14:00 +27°C° 0 mm 6 mps 751 mmHg 25%
    15:00 +27°C° 0 mm 6 mps 751 mmHg 24%
    16:00 +26°C° 0 mm 5 mps 751 mmHg 24%
    17:00 +26°C° 0 mm 5 mps 751 mmHg 24%
    18:00 +25°C° 0 mm 4 mps 752 mmHg 26%
    19:00 +23°C° 0 mm 4 mps 752 mmHg 27%
    20:00 +22°C° 0 mm 3 mps 752 mmHg 29%
    21:00 +21°C° 0 mm 3 mps 753 mmHg 33%
    22:00 +21°C° 0 mm 4 mps 753 mmHg 37%
    23:00 +20°C° 0 mm 4 mps 754 mmHg 41%

    Day after tomorrow, 27 February, Tuesday

    Time Temperature Precipitation Wind Pressure Humidity
    00:00 +19°C° 0 mm 4 mps 754 mmHg 53%
    01:00 +17°C° 0 mm 4 mps 754 mmHg 65%
    02:00 +15°C° 0 mm 5 mps 754 mmHg 77%
    03:00 +15°C° 0 mm 4 mps 755 mmHg 77%
    04:00 +14°C° 0 mm 3 mps 755 mmHg 78%
    05:00 +15°C° 0 mm 2 mps 755 mmHg 79%
    06:00 +15°C° 0 mm 2 mps 756 mmHg 74%
    07:00 +16°C° 0 mm 2 mps 756 mmHg 70%
    08:00 +16°C° 0 mm 2 mps 757 mmHg 66%
    09:00 +17°C° 0 mm 2 mps 757 mmHg 58%
    10:00 +19°C° 0 mm 2 mps 757 mmHg 49%
    11:00 +20°C° 0 mm 2 mps 757 mmHg 41%
    12:00 +21°C° 0 mm 2 mps 757 mmHg 36%
    13:00 +23°C° 0 mm 2 mps 756 mmHg 31%
    14:00 +24°C° 0 mm 2 mps 756 mmHg 27%
    15:00 +24°C° 0 mm 2 mps 756 mmHg 26%
    16:00 +24°C° 0 mm 2 mps 756 mmHg 26%
    17:00 +24°C° 0 mm 2 mps 756 mmHg 25%
    18:00 +21°C° 0 mm 3 mps 756 mmHg 31%
    19:00 +20°C° 0 mm 4 mps 757 mmHg 37%
    20:00 +19°C° 0 mm 4 mps 757 mmHg 42%
    21:00 +18°C° 0 mm 4 mps 757 mmHg 50%
    22:00 +17°C° 0 mm 4 mps 758 mmHg 57%
    23:00 +15°C° 0 mm 5 mps 758 mmHg 65%

    28 February, Wednesday

    Time Temperature Precipitation Wind Pressure Humidity
    00:00 +15°C° 0 mm 4 mps 758 mmHg 68%
    01:00 +14°C° 0 mm 4 mps 757 mmHg 70%
    02:00 +14°C° 0 mm 3 mps 757 mmHg 73%
    03:00 +14°C° 0 mm 3 mps 757 mmHg 74%
    04:00 +13°C° 0 mm 3 mps 757 mmHg 75%
    05:00 +13°C° 0 mm 3 mps 757 mmHg 75%
    06:00 +14°C° 0 mm 3 mps 757 mmHg 70%
    07:00 +14°C° 0 mm 3 mps 757 mmHg 65%
    08:00 +16°C° 0 mm 3 mps 758 mmHg 60%
    09:00 +18°C° 0 mm 3 mps 758 mmHg 51%
    10:00 +20°C° 0 mm 4 mps 757 mmHg 43%
    11:00 +21°C° 0 mm 4 mps 757 mmHg 34%
    12:00 +22°C° 0 mm 4 mps 757 mmHg 32%
    13:00 +24°C° 0 mm 3 mps 756 mmHg 29%
    14:00 +25°C° 0 mm 3 mps 756 mmHg 26%
    15:00 +23°C° 0 mm 4 mps 756 mmHg 26%
    16:00 +23°C° 0 mm 4 mps 756 mmHg 27%
    17:00 +23°C° 0 mm 4 mps 756 mmHg 27%
    18:00 +22°C° 0 mm 5 mps 756 mmHg 34%
    19:00 +20°C° 0 mm 5 mps 757 mmHg 40%
    20:00 +19°C° 0 mm 5 mps 757 mmHg 47%
    21:00 +17°C° 0 mm 5 mps 757 mmHg 52%
    22:00 +17°C° 0 mm 4 mps 757 mmHg 57%
    23:00 +16°C° 0 mm 3 mps 758 mmHg 63%

    1 March, Thursday

    Time Temperature Precipitation Wind Pressure Humidity
    00:00 +16°C° 0 mm 3 mps 757 mmHg 65%
    01:00 +16°C° 0 mm 2 mps 757 mmHg 67%
    02:00 +15°C° 0 mm 2 mps 757 mmHg 69%
    03:00 +15°C° 0 mm 2 mps 757 mmHg 70%
    04:00 +15°C° 0 mm 2 mps 757 mmHg 72%
    05:00 +14°C° 0 mm 2 mps 757 mmHg 73%
    06:00 +15°C° 0 mm 2 mps 758 mmHg 69%
    07:00 +16°C° 0 mm 2 mps 758 mmHg 65%
    08:00 +16°C° 0 mm 2 mps 758 mmHg 62%
    09:00 +18°C° 0 mm 2 mps 758 mmHg 51%
    10:00 +20°C° 0 mm 2 mps 758 mmHg 40%
    11:00 +22°C° 0 mm 3 mps 758 mmHg 30%
    12:00 +24°C° 0 mm 3 mps 758 mmHg 27%
    13:00 +25°C° 0 mm 3 mps 757 mmHg 25%
    14:00 +26°C° 0 mm 3 mps 757 mmHg 23%
    15:00 +26°C° 0 mm 3 mps 756 mmHg 24%
    16:00 +26°C° 0 mm 3 mps 756 mmHg 24%
    17:00 +26°C° 0 mm 3 mps 756 mmHg 25%
    18:00 +25°C° 0 mm 3 mps 756 mmHg 27%
    19:00 +22°C° 0 mm 3 mps 757 mmHg 29%
    20:00 +21°C° 0 mm 3 mps 757 mmHg 32%
    21:00 +20°C° 0 mm 3 mps 757 mmHg 33%
    22:00 +19°C° 0 mm 2 mps 757 mmHg 34%
    23:00 +19°C° 0 mm 2 mps 757 mmHg 34%

    2 March, Friday

    Time Temperature Precipitation Wind Pressure Humidity
    00:00 +18°C° 0 mm 2 mps 757 mmHg 35%
    01:00 +19°C° 0 mm 1 mps 757 mmHg 36%
    02:00 +18°C° 0 mm 1 mps 756 mmHg 37%
    03:00 +18°C° 0 mm 1 mps 756 mmHg 37%
    04:00 +18°C° 0 mm 1 mps 756 mmHg 38%
    05:00 +18°C° 0 mm 1 mps 756 mmHg 38%
    06:00 +18°C° 0 mm 2 mps 756 mmHg 36%
    07:00 +19°C° 0 mm 2 mps 756 mmHg 33%
    08:00 +20°C° 0 mm 2 mps 756 mmHg 30%
    09:00 +23°C° 0 mm 2 mps 756 mmHg 27%
    10:00 +25°C° 0 mm 3 mps 756 mmHg 24%
    11:00 +27°C° 0 mm 3 mps 756 mmHg 20%
    12:00 +27°C° 0 mm 3 mps 755 mmHg 19%
    13:00 +28°C° 0 mm 3 mps 755 mmHg 18%
    14:00 +29°C° 0 mm 2 mps 754 mmHg 17%
    15:00 +29°C° 0 mm 2 mps 754 mmHg 17%
    16:00 +29°C° 0 mm 2 mps 754 mmHg 17%
    17:00 +28°C° 0 mm 2 mps 754 mmHg 17%
    18:00 +27°C° 0 mm 2 mps 754 mmHg 19%
    19:00 +25°C° 0 mm 3 mps 754 mmHg 21%
    20:00 +24°C° 0 mm 3 mps 754 mmHg 23%
    21:00 +22°C° 0 mm 3 mps 754 mmHg 24%
    22:00 +22°C° 0 mm 3 mps 754 mmHg 26%
    23:00 +21°C° 0 mm 2 mps 754 mmHg 27%
    Show more